星链-32251 (STARLINK-32251)

导读 | 星芒AI

STARLINK-32251 是 SpaceX 星链计划中的一颗低轨通信卫星,属于星链第三代(v1.5)卫星系列。该卫星于2023年发射,部署在约550公里高度的近地轨道,旨在为全球用户提供高速互联网服务。它搭载先进通信设备和激光链路,支持卫星间直接通信,提升网络稳定性和覆盖范围。星链项目通过大规模部署此类卫星,致力于实现全球宽带覆盖,尤其服务于偏远和网络基础设施薄弱地区。

基本信息
目录编号:
60940
目录名称:
STARLINK-32251
国际标识:
2024-155S
轨道中心:
EARTH
卫星名称:
星链-32251
卫星全名:
星链-32251 (STARLINK-32251)
卫星状态:
在轨 (已飞行429 天)
发射日期:
2024-08-31 UTC
国别 :
美国 (US)
星等 :
--
轨道信息
数据来源 国际轨道数据
星历时间: 2025-11-02T18:00:47+0800
1天前
查看轨道信息
半长轴: 6853.367km
偏心率: 0.0001385
轨道倾角: 53.161°
近地点辐角 89.751°
升交点赤经 0.926°
平近点角 270.365°
近地点: 474.282km
远地点: 476.182km
周期: 94.106分钟
每日圈数: 15.301953
详细信息
固有亮度:
5
最大亮度:
2.5
卫星平台:
Starlink V1.0
覆盖范围:
全球
运营商:
太空探索技术公司
运营商所在国:
美国
制造商(研发单位):
太空探索技术公司
制造商所在国:
美国
使用方式:
暂无
卫星简介
Starlink 计划是 SpaceX 推出的全球卫星互联网项目,通过发射低轨道卫星,为全球尤其是偏远地区提供高速、低延迟的互联网服务。自 2019 年起,Starlink 已部署数千颗卫星,旨在缩小全球数字鸿沟,推动互联网普及。该项目还为军事、航空等行业提供通信支持,带来广泛经济效益。
2D轨道图
3D轨道图
轨道高度分析图
轨道倾角分析图
轨道综合分析图
查看轨道综合分析图